Time,TemperatureF,DewpointF,PressureIn,WindDirection,WindDirectionDegrees,WindSpeedMPH,WindSpeedGustMPH,Humidity,HourlyPrecipIn,Conditions,Clouds,dailyrainin,SoftwareType,DateUTC
2013-12-08 00:12:00,26.3,24.0,29.81,SW,234,3.0,15.0,91,0.00,,,0.00,weatherlink.com 1.10,2013-12-08 07:12:00,
2013-12-08 00:27:00,26.2,24.0,29.80,SSW,201,8.0,16.0,91,0.00,,,0.00,weatherlink.com 1.10,2013-12-08 07:27:00,
2013-12-08 00:43:00,26.0,24.0,29.81,SSW,208,1.0,13.0,92,0.00,,,0.00,weatherlink.com 1.10,2013-12-08 07:43:00,
2013-12-08 00:58:00,25.8,24.0,29.81,SW,229,4.0,11.0,93,0.00,,,0.00,weatherlink.com 1.10,2013-12-08 07:58:00,
2013-12-08 01:13:00,25.7,24.0,29.82,WSW,257,4.0,12.0,93,0.00,,,0.00,weatherlink.com 1.10,2013-12-08 08:13:00,
2013-12-08 01:28:00,25.9,24.0,29.82,SW,235,11.0,16.0,93,0.00,,,0.00,weatherlink.com 1.10,2013-12-08 08:28:00,
2013-12-08 01:43:00,25.9,24.0,29.83,West,262,5.0,15.0,93,0.00,,,0.00,weatherlink.com 1.10,2013-12-08 08:43:00,
2013-12-08 01:58:00,26.1,24.0,29.83,SSW,208,3.0,-999.0,92,-99.99,,,0.00,weatherlink.com 1.10,2013-12-08 08:58:00,
2013-12-08 02:13:00,26.2,24.0,29.83,SW,231,8.0,19.0,92,0.00,,,0.00,weatherlink.com 1.10,2013-12-08 09:13:00,
2013-12-08 02:28:00,26.2,24.0,29.83,West,262,5.0,15.0,92,0.00,,,0.00,weatherlink.com 1.10,2013-12-08 09:28:00,
2013-12-08 02:43:00,26.0,24.0,29.83,West,266,5.0,12.0,92,0.00,,,0.00,weatherlink.com 1.10,2013-12-08 09:43:00,
2013-12-08 02:58:00,26.0,24.0,29.84,West,264,5.0,15.0,91,0.00,,,0.00,weatherlink.com 1.10,2013-12-08 09:58:00,
2013-12-08 03:13:00,25.9,24.0,29.85,South,171,2.0,18.0,91,0.00,,,0.00,weatherlink.com 1.10,2013-12-08 10:13:00,
2013-12-08 03:29:00,25.4,23.0,29.85,SSW,209,5.0,19.0,91,0.00,,,0.00,weatherlink.com 1.10,2013-12-08 10:29:00,
2013-12-08 03:43:00,25.3,23.0,29.85,WNW,299,4.0,20.0,91,0.00,,,0.00,weatherlink.com 1.10,2013-12-08 10:43:00,
2013-12-08 03:58:00,25.0,23.0,29.86,WSW,249,5.0,19.0,91,0.00,,,0.00,weatherlink.com 1.10,2013-12-08 10:58:00,
2013-12-08 04:13:00,23.3,21.0,29.87,WSW,242,8.0,17.0,90,0.00,,,0.00,weatherlink.com 1.10,2013-12-08 11:13:00,
2013-12-08 04:28:00,22.2,20.0,29.88,West,278,7.0,12.0,90,0.00,,,0.00,weatherlink.com 1.10,2013-12-08 11:28:00,
2013-12-08 04:43:00,22.3,20.0,29.89,West,266,8.0,13.0,90,0.00,,,0.00,weatherlink.com 1.10,2013-12-08 11:43:00,
2013-12-08 04:58:00,22.6,20.0,29.89,SW,217,10.0,14.0,90,0.00,,,0.00,weatherlink.com 1.10,2013-12-08 11:58:00,
2013-12-08 05:13:00,22.4,20.0,29.89,SSE,162,2.0,15.0,89,0.00,,,0.00,weatherlink.com 1.10,2013-12-08 12:13:00,
2013-12-08 05:28:00,21.9,19.0,29.90,WSW,254,3.0,11.0,88,0.00,,,0.00,weatherlink.com 1.10,2013-12-08 12:28:00,
2013-12-08 05:43:00,21.7,19.0,29.91,WSW,245,5.0,12.0,88,0.00,,,0.00,weatherlink.com 1.10,2013-12-08 12:43:00,
2013-12-08 05:58:00,21.1,18.0,29.91,WSW,243,5.0,10.0,88,0.00,,,0.00,weatherlink.com 1.10,2013-12-08 12:58:00,
2013-12-08 06:13:00,20.6,17.0,29.91,WSW,253,3.0,8.0,87,0.00,,,0.00,weatherlink.com 1.10,2013-12-08 13:13:00,
2013-12-08 06:28:00,20.1,17.0,29.92,SW,233,2.0,5.0,87,0.00,,,0.00,weatherlink.com 1.10,2013-12-08 13:28:00,
2013-12-08 06:44:00,20.0,17.0,29.92,SW,233,4.0,9.0,86,0.00,,,0.00,weatherlink.com 1.10,2013-12-08 13:44:00,
2013-12-08 06:59:00,19.7,17.0,29.93,WSW,248,4.0,11.0,87,0.00,,,0.00,weatherlink.com 1.10,2013-12-08 13:59:00,
2013-12-08 07:14:00,19.3,16.0,29.94,WNW,294,4.0,8.0,85,0.00,,,0.00,weatherlink.com 1.10,2013-12-08 14:14:00,
2013-12-08 07:30:00,18.7,15.0,29.94,WNW,285,3.0,8.0,85,0.00,,,0.00,weatherlink.com 1.10,2013-12-08 14:30:00,
2013-12-08 07:44:00,18.4,15.0,29.94,WNW,288,1.0,8.0,85,0.00,,,0.00,weatherlink.com 1.10,2013-12-08 14:44:00,
2013-12-08 07:59:00,18.4,14.0,29.94,WSW,249,0.0,3.0,84,0.00,,,0.00,weatherlink.com 1.10,2013-12-08 14:59:00,
2013-12-08 08:14:00,19.0,15.0,29.94,NW,304,2.0,4.0,83,0.00,,,0.00,weatherlink.com 1.10,2013-12-08 15:14:00,
2013-12-08 08:29:00,20.1,15.0,29.95,WNW,289,1.0,1.0,82,0.00,,,0.00,weatherlink.com 1.10,2013-12-08 15:29:00,
2013-12-08 08:44:00,21.6,16.0,29.96,West,263,0.0,7.0,80,0.00,,,0.00,weatherlink.com 1.10,2013-12-08 15:44:00,
2013-12-08 08:59:00,22.6,17.0,29.97,West,259,7.0,10.0,79,0.00,,,0.00,weatherlink.com 1.10,2013-12-08 15:59:00,
2013-12-08 09:14:00,23.5,18.0,29.98,SW,218,5.0,11.0,78,0.00,,,0.00,weatherlink.com 1.10,2013-12-08 16:14:00,
2013-12-08 09:29:00,24.0,18.0,29.99,NW,304,5.0,8.0,77,0.00,,,0.00,weatherlink.com 1.10,2013-12-08 16:29:00,
2013-12-08 09:44:00,23.3,17.0,30.00,SW,233,2.0,10.0,77,0.00,,,0.00,weatherlink.com 1.10,2013-12-08 16:44:00,
2013-12-08 09:59:00,23.9,18.0,30.00,West,261,4.0,9.0,79,0.00,,,0.00,weatherlink.com 1.10,2013-12-08 16:59:00,
2013-12-08 10:14:00,24.2,18.0,30.00,WSW,241,3.0,8.0,77,0.00,,,0.00,weatherlink.com 1.10,2013-12-08 17:14:00,
2013-12-08 10:29:00,24.7,18.0,30.00,SSW,198,0.0,6.0,75,0.00,,,0.00,weatherlink.com 1.10,2013-12-08 17:29:00,
2013-12-08 10:44:00,27.9,19.0,30.00,WSW,250,0.0,9.0,70,0.00,,,0.00,weatherlink.com 1.10,2013-12-08 17:44:00,
2013-12-08 10:59:00,26.2,17.0,30.00,West,259,0.0,10.0,69,0.00,,,0.00,weatherlink.com 1.10,2013-12-08 17:59:00,
2013-12-08 11:14:00,27.3,17.0,30.00,WSW,248,8.0,11.0,65,0.00,,,0.00,weatherlink.com 1.10,2013-12-08 18:14:00,
2013-12-08 11:29:00,28.1,15.0,29.99,WSW,247,3.0,7.0,58,0.00,,,0.00,weatherlink.com 1.10,2013-12-08 18:29:00,
2013-12-08 11:44:00,28.0,15.0,29.99,WSW,250,6.0,9.0,58,0.00,,,0.00,weatherlink.com 1.10,2013-12-08 18:44:00,
2013-12-08 11:59:00,28.3,15.0,29.98,WSW,242,5.0,9.0,57,0.00,,,0.00,weatherlink.com 1.10,2013-12-08 18:59:00,
2013-12-08 12:14:00,28.9,14.0,29.98,West,259,3.0,14.0,54,0.00,,,0.00,weatherlink.com 1.10,2013-12-08 19:14:00,
2013-12-08 12:29:00,28.8,14.0,29.97,SW,227,4.0,10.0,55,0.00,,,0.00,weatherlink.com 1.10,2013-12-08 19:29:00,
2013-12-08 12:44:00,28.8,15.0,29.96,WSW,242,5.0,9.0,56,0.00,,,0.00,weatherlink.com 1.10,2013-12-08 19:44:00,
2013-12-08 12:59:00,28.9,18.0,29.95,SSE,148,3.0,8.0,64,0.00,,,0.00,weatherlink.com 1.10,2013-12-08 19:59:00,
2013-12-08 13:14:00,29.1,17.0,29.95,WNW,297,5.0,6.0,62,0.00,,,0.00,weatherlink.com 1.10,2013-12-08 20:14:00,
2013-12-08 13:29:00,29.3,18.0,29.94,SSE,154,3.0,9.0,63,0.00,,,0.00,weatherlink.com 1.10,2013-12-08 20:29:00,
2013-12-08 13:44:00,29.2,18.0,29.94,SSW,212,1.0,6.0,63,0.00,,,0.00,weatherlink.com 1.10,2013-12-08 20:44:00,
2013-12-08 13:59:00,28.9,18.0,29.93,SE,139,1.0,6.0,63,0.00,,,0.00,weatherlink.com 1.10,2013-12-08 20:59:00,
2013-12-08 14:14:00,29.0,19.0,29.93,SSW,195,2.0,7.0,65,0.00,,,0.00,weatherlink.com 1.10,2013-12-08 21:14:00,
2013-12-08 14:29:00,28.6,18.0,29.92,SE,132,4.0,7.0,65,0.00,,,0.00,weatherlink.com 1.10,2013-12-08 21:29:00,
2013-12-08 14:44:00,28.1,19.0,29.93,SE,139,2.0,9.0,68,0.00,,,0.00,weatherlink.com 1.10,2013-12-08 21:44:00,
2013-12-08 14:59:00,27.7,18.0,29.92,SE,141,2.0,6.0,67,0.00,,,0.00,weatherlink.com 1.10,2013-12-08 21:59:00,
2013-12-08 15:14:00,27.4,17.0,29.92,SW,217,4.0,9.0,66,0.00,,,0.00,weatherlink.com 1.10,2013-12-08 22:14:00,
2013-12-08 15:29:00,27.3,17.0,29.93,WSW,252,0.0,6.0,64,0.00,,,0.00,weatherlink.com 1.10,2013-12-08 22:29:00,
2013-12-08 15:44:00,27.0,16.0,29.92,SW,214,3.0,8.0,64,0.00,,,0.00,weatherlink.com 1.10,2013-12-08 22:44:00,
2013-12-08 15:59:00,26.7,16.0,29.91,WNW,289,2.0,5.0,65,0.00,,,0.00,weatherlink.com 1.10,2013-12-08 22:59:00,
2013-12-08 16:14:00,26.3,17.0,29.91,WSW,249,2.0,4.0,67,0.00,,,0.00,weatherlink.com 1.10,2013-12-08 23:14:00,
2013-12-08 16:29:00,26.2,18.0,29.91,West,266,1.0,6.0,70,0.00,,,0.00,weatherlink.com 1.10,2013-12-08 23:29:00,
2013-12-08 16:44:00,26.1,18.0,29.91,WSW,255,3.0,5.0,71,0.00,,,0.00,weatherlink.com 1.10,2013-12-08 23:44:00,
2013-12-08 16:59:00,26.1,18.0,29.92,West,267,0.0,6.0,71,0.00,,,0.00,weatherlink.com 1.10,2013-12-08 23:59:00,
2013-12-08 17:14:00,25.7,17.0,29.93,WNW,298,2.0,6.0,70,0.00,,,0.00,weatherlink.com 1.10,2013-12-09 00:14:00,
2013-12-08 17:30:00,25.3,17.0,29.93,West,266,2.0,6.0,71,0.00,,,0.00,weatherlink.com 1.10,2013-12-09 00:30:00,
2013-12-08 17:44:00,25.1,18.0,29.93,West,272,2.0,3.0,74,0.00,,,0.00,weatherlink.com 1.10,2013-12-09 00:44:00,
2013-12-08 17:59:00,24.8,18.0,29.94,West,265,2.0,7.0,74,0.00,,,0.00,weatherlink.com 1.10,2013-12-09 00:59:00,
2013-12-08 18:14:00,24.5,18.0,29.94,West,276,1.0,4.0,75,0.00,,,0.00,weatherlink.com 1.10,2013-12-09 01:14:00,
2013-12-08 18:30:00,24.4,18.0,29.95,West,267,4.0,4.0,75,0.00,,,0.00,weatherlink.com 1.10,2013-12-09 01:30:00,
2013-12-08 18:44:00,24.1,16.0,29.95,SE,132,0.0,4.0,72,0.00,,,0.00,weatherlink.com 1.10,2013-12-09 01:44:00,
2013-12-08 19:00:00,23.9,16.0,29.96,WSW,242,0.0,3.0,71,0.00,,,0.00,weatherlink.com 1.10,2013-12-09 02:00:00,
2013-12-08 19:15:00,23.9,15.0,29.95,SW,224,0.0,3.0,70,0.00,,,0.00,weatherlink.com 1.10,2013-12-09 02:15:00,
2013-12-08 19:30:00,23.7,14.0,29.96,West,264,1.0,3.0,67,0.00,,,0.00,weatherlink.com 1.10,2013-12-09 02:30:00,
2013-12-08 19:45:00,23.5,14.0,29.96,West,263,0.0,1.0,68,0.00,,,0.00,weatherlink.com 1.10,2013-12-09 02:45:00,
2013-12-08 20:00:00,23.4,15.0,29.96,West,260,0.0,2.0,69,0.00,,,0.00,weatherlink.com 1.10,2013-12-09 03:00:00,
2013-12-08 20:15:00,22.8,14.0,29.96,West,280,1.0,2.0,69,0.00,,,0.00,weatherlink.com 1.10,2013-12-09 03:15:00,
2013-12-08 20:30:00,22.2,13.0,29.96,West,274,0.0,3.0,69,0.00,,,0.00,weatherlink.com 1.10,2013-12-09 03:30:00,
2013-12-08 20:45:00,21.9,14.0,29.95,West,278,0.0,1.0,70,0.00,,,0.00,weatherlink.com 1.10,2013-12-09 03:45:00,
2013-12-08 21:00:00,21.8,14.0,29.96,West,266,1.0,2.0,73,0.00,,,0.00,weatherlink.com 1.10,2013-12-09 04:00:00,
2013-12-08 21:15:00,21.9,16.0,29.96,West,259,0.0,2.0,77,0.00,,,0.00,weatherlink.com 1.10,2013-12-09 04:15:00,
2013-12-08 21:30:00,21.4,15.0,29.96,West,269,0.0,2.0,77,0.00,,,0.00,weatherlink.com 1.10,2013-12-09 04:30:00,
2013-12-08 21:45:00,21.3,16.0,29.96,WSW,252,0.0,2.0,79,0.00,,,0.00,weatherlink.com 1.10,2013-12-09 04:45:00,
2013-12-08 22:00:00,21.2,16.0,29.97,West,261,0.0,1.0,80,0.00,,,0.00,weatherlink.com 1.10,2013-12-09 05:00:00,
2013-12-08 22:15:00,21.3,16.0,29.98,SW,236,3.0,4.0,80,0.00,,,0.00,weatherlink.com 1.10,2013-12-09 05:15:00,
2013-12-08 22:30:00,21.3,16.0,29.98,West,261,3.0,4.0,80,0.00,,,0.00,weatherlink.com 1.10,2013-12-09 05:30:00,
2013-12-08 22:45:00,21.3,16.0,29.99,West,272,1.0,4.0,79,0.00,,,0.00,weatherlink.com 1.10,2013-12-09 05:45:00,
2013-12-08 23:00:00,21.2,16.0,29.99,WSW,257,0.0,2.0,79,0.00,,,0.00,weatherlink.com 1.10,2013-12-09 06:00:00,
2013-12-08 23:15:00,21.0,15.0,29.99,WSW,252,1.0,3.0,77,0.00,,,0.00,weatherlink.com 1.10,2013-12-09 06:15:00,
2013-12-08 23:30:00,20.4,15.0,29.99,West,261,1.0,2.0,79,0.00,,,0.00,weatherlink.com 1.10,2013-12-09 06:30:00,
2013-12-08 23:46:00,18.8,14.0,29.99,WSW,257,1.0,3.0,80,0.00,,,0.00,weatherlink.com 1.10,2013-12-09 06:46:00,